When you browse on this site, cookies collect data to enhance your experience and personalize the content and advertising you see.
Visit our Privacy Policy to learn more. By continuing to use the site, you agree to this use of cookies and data.
  • In Hungary
  • List of Countries
  • For 7 days
  • Water Temperature
  • Satellite Maps
  • Weather Map
  • News
  • Weather Widgets
  • user-avatar
    Login

    Hourly Weather Kegalle

    Today, 10 December, Monday

    Time Temperature Precipitation Wind Pressure Humidity
    00:00 +24°C° 0 mm 2 mps 739 mmHg 85%
    01:00 +24°C° 0 mm 1 mps 739 mmHg 86%
    02:00 +24°C° 0 mm 1 mps 738 mmHg 86%
    03:00 +24°C° 0 mm 1 mps 738 mmHg 86%
    04:00 +24°C° 0 mm 1 mps 738 mmHg 86%
    05:00 +24°C° 0 mm 1 mps 738 mmHg 86%
    06:00 +25°C° 0 mm 2 mps 739 mmHg 82%
    07:00 +26°C° 0 mm 2 mps 739 mmHg 79%
    08:00 +27°C° 0 mm 2 mps 740 mmHg 75%
    09:00 +28°C° 0 mm 2 mps 740 mmHg 69%
    10:00 +30°C° 0 mm 2 mps 740 mmHg 63%
    11:00 +32°C° 0 mm 2 mps 740 mmHg 56%
    12:00 +32°C° 0 mm 2 mps 739 mmHg 56%
    13:00 +32°C° 0 mm 2 mps 739 mmHg 56%
    14:00 +32°C° 0 mm 2 mps 738 mmHg 56%
    15:00 +31°C° 0 mm 2 mps 738 mmHg 63%
    16:00 +29°C° 0 mm 2 mps 738 mmHg 69%
    17:00 +28°C° 0 mm 1 mps 738 mmHg 76%
    18:00 +27°C° 0 mm 1 mps 738 mmHg 79%
    19:00 +27°C° 0 mm 1 mps 739 mmHg 82%
    20:00 +26°C° 0 mm 1 mps 739 mmHg 85%
    21:00 +25°C° 0 mm 1 mps 739 mmHg 86%
    22:00 +25°C° 0 mm 1 mps 739 mmHg 87%
    23:00 +25°C° 0 mm 1 mps 739 mmHg 88%

    Tomorrow, 11 December, Tuesday

    Time Temperature Precipitation Wind Pressure Humidity
    00:00 +24°C° 0 mm 1 mps 739 mmHg 88%
    01:00 +24°C° 0 mm 1 mps 739 mmHg 88%
    02:00 +24°C° 0 mm 1 mps 738 mmHg 89%
    03:00 +24°C° 0 mm 1 mps 738 mmHg 88%
    04:00 +23°C° 0 mm 1 mps 738 mmHg 87%
    05:00 +23°C° 0 mm 1 mps 738 mmHg 87%
    06:00 +25°C° 0 mm 1 mps 739 mmHg 81%
    07:00 +26°C° 0 mm 2 mps 739 mmHg 75%
    08:00 +27°C° 0 mm 2 mps 740 mmHg 70%
    09:00 +29°C° 0 mm 2 mps 740 mmHg 61%
    10:00 +31°C° 0 mm 2 mps 740 mmHg 53%
    11:00 +32°C° 0 mm 2 mps 740 mmHg 45%
    12:00 +32°C° 0 mm 2 mps 739 mmHg 44%
    13:00 +34°C° 0 mm 2 mps 739 mmHg 44%
    14:00 +34°C° 0 mm 2 mps 738 mmHg 44%
    15:00 +31°C° 0 mm 2 mps 738 mmHg 52%
    16:00 +30°C° 0 mm 2 mps 738 mmHg 60%
    17:00 +28°C° 0 mm 2 mps 738 mmHg 68%
    18:00 +27°C° 0 mm 2 mps 739 mmHg 71%
    19:00 +26°C° 0 mm 2 mps 739 mmHg 75%
    20:00 +25°C° 0 mm 2 mps 740 mmHg 79%
    21:00 +25°C° 0 mm 1 mps 740 mmHg 80%
    22:00 +24°C° 0 mm 1 mps 740 mmHg 81%
    23:00 +24°C° 0 mm 1 mps 740 mmHg 82%

    Day after tomorrow, 12 December, Wednesday

    Time Temperature Precipitation Wind Pressure Humidity
    00:00 +24°C° 0 mm 1 mps 739 mmHg 83%
    01:00 +23°C° 0 mm 1 mps 739 mmHg 83%
    02:00 +23°C° 0 mm 1 mps 738 mmHg 84%
    03:00 +23°C° 0 mm 1 mps 739 mmHg 82%
    04:00 +23°C° 0 mm 1 mps 739 mmHg 81%
    05:00 +23°C° 0 mm 1 mps 739 mmHg 79%
    06:00 +24°C° 0 mm 1 mps 739 mmHg 75%
    07:00 +25°C° 0 mm 2 mps 740 mmHg 71%
    08:00 +26°C° 0 mm 2 mps 741 mmHg 67%
    09:00 +28°C° 0 mm 2 mps 741 mmHg 60%
    10:00 +30°C° 0 mm 2 mps 740 mmHg 54%
    11:00 +33°C° 0 mm 3 mps 740 mmHg 47%
    12:00 +33°C° 0 mm 3 mps 740 mmHg 46%
    13:00 +33°C° 0 mm 3 mps 739 mmHg 46%
    14:00 +34°C° 0 mm 3 mps 738 mmHg 45%
    15:00 +31°C° 0 mm 2 mps 738 mmHg 53%
    16:00 +30°C° 0 mm 2 mps 738 mmHg 60%
    17:00 +28°C° 0 mm 1 mps 738 mmHg 68%
    18:00 +27°C° 0 mm 1 mps 739 mmHg 72%
    19:00 +26°C° 0 mm 2 mps 740 mmHg 77%
    20:00 +25°C° 0 mm 2 mps 740 mmHg 81%
    21:00 +24°C° 0 mm 1 mps 740 mmHg 83%
    22:00 +24°C° 0 mm 1 mps 740 mmHg 85%
    23:00 +23°C° 0 mm 1 mps 740 mmHg 87%

    13 December, Thursday

    Time Temperature Precipitation Wind Pressure Humidity
    00:00 +23°C° 0 mm 1 mps 740 mmHg 88%
    01:00 +23°C° 0 mm 1 mps 739 mmHg 90%
    02:00 +22°C° 0 mm 1 mps 739 mmHg 92%
    03:00 +22°C° 0 mm 1 mps 739 mmHg 91%
    04:00 +22°C° 0 mm 1 mps 739 mmHg 91%
    05:00 +21°C° 0 mm 1 mps 739 mmHg 91%
    06:00 +23°C° 0 mm 1 mps 740 mmHg 83%
    07:00 +25°C° 0 mm 2 mps 740 mmHg 76%
    08:00 +26°C° 0 mm 2 mps 741 mmHg 68%
    09:00 +28°C° 0 mm 2 mps 741 mmHg 61%
    10:00 +30°C° 0 mm 2 mps 740 mmHg 54%
    11:00 +31°C° 0 mm 3 mps 740 mmHg 47%
    12:00 +33°C° 0 mm 3 mps 739 mmHg 46%
    13:00 +33°C° 0 mm 3 mps 739 mmHg 45%
    14:00 +33°C° 0 mm 3 mps 738 mmHg 44%
    15:00 +31°C° 0 mm 3 mps 738 mmHg 52%
    16:00 +29°C° 0 mm 2 mps 738 mmHg 60%
    17:00 +28°C° 0 mm 2 mps 738 mmHg 68%
    18:00 +27°C° 0 mm 2 mps 738 mmHg 72%
    19:00 +26°C° 0 mm 2 mps 739 mmHg 75%
    20:00 +25°C° 0 mm 2 mps 740 mmHg 79%
    21:00 +25°C° 0 mm 2 mps 739 mmHg 80%
    22:00 +24°C° 0 mm 2 mps 739 mmHg 82%
    23:00 +24°C° 0 mm 2 mps 739 mmHg 84%

    14 December, Friday

    Time Temperature Precipitation Wind Pressure Humidity
    00:00 +24°C° 0 mm 1 mps 739 mmHg 84%
    01:00 +24°C° 0 mm 1 mps 738 mmHg 85%
    02:00 +24°C° 0 mm 1 mps 737 mmHg 85%
    03:00 +24°C° 0 mm 1 mps 738 mmHg 86%
    04:00 +24°C° 0 mm 1 mps 738 mmHg 88%
    05:00 +24°C° 0 mm 1 mps 738 mmHg 89%
    06:00 +25°C° 0 mm 2 mps 738 mmHg 86%
    07:00 +26°C° 0 mm 2 mps 739 mmHg 83%
    08:00 +27°C° 0 mm 3 mps 740 mmHg 79%
    09:00 +28°C° 0 mm 3 mps 739 mmHg 75%
    10:00 +29°C° 0 mm 3 mps 739 mmHg 71%
    11:00 +30°C° 0 mm 3 mps 738 mmHg 67%
    12:00 +30°C° 0.1 mm 3 mps 738 mmHg 67%
    13:00 +30°C° 0.1 mm 3 mps 737 mmHg 67%
    14:00 +30°C° 0.1 mm 3 mps 737 mmHg 67%
    15:00 +29°C° 0.2 mm 3 mps 737 mmHg 73%
    16:00 +28°C° 0.2 mm 2 mps 737 mmHg 79%
    17:00 +27°C° 0.2 mm 2 mps 737 mmHg 85%
    18:00 +26°C° 0 mm 2 mps 738 mmHg 86%
    19:00 +26°C° 0 mm 2 mps 738 mmHg 88%
    20:00 +25°C° 0 mm 1 mps 739 mmHg 89%
    21:00 +25°C° 0 mm 1 mps 739 mmHg 90%
    22:00 +25°C° 0 mm 1 mps 738 mmHg 90%
    23:00 +24°C° 0 mm 1 mps 738 mmHg 91%

    15 December, Saturday

    Time Temperature Precipitation Wind Pressure Humidity
    00:00 +24°C° 0 mm 1 mps 738 mmHg 91%
    01:00 +24°C° 0 mm 1 mps 737 mmHg 91%
    02:00 +24°C° 0 mm 1 mps 737 mmHg 91%
    03:00 +24°C° 0 mm 1 mps 737 mmHg 90%
    04:00 +24°C° 0 mm 1 mps 737 mmHg 89%
    05:00 +24°C° 0 mm 1 mps 737 mmHg 89%
    06:00 +25°C° 0 mm 1 mps 738 mmHg 85%
    07:00 +25°C° 0 mm 1 mps 739 mmHg 82%
    08:00 +26°C° 0 mm 1 mps 740 mmHg 79%
    09:00 +27°C° 0 mm 1 mps 739 mmHg 76%
    10:00 +28°C° 0 mm 2 mps 739 mmHg 72%
    11:00 +29°C° 0 mm 2 mps 739 mmHg 69%
    12:00 +29°C° 0 mm 2 mps 738 mmHg 67%
    13:00 +30°C° 0 mm 2 mps 738 mmHg 65%
    14:00 +30°C° 0 mm 2 mps 737 mmHg 63%
    15:00 +29°C° 0 mm 2 mps 738 mmHg 69%
    16:00 +27°C° 0 mm 2 mps 738 mmHg 75%
    17:00 +26°C° 0 mm 2 mps 738 mmHg 82%
    18:00 +25°C° 0 mm 1 mps 739 mmHg 84%
    19:00 +25°C° 0 mm 1 mps 739 mmHg 87%
    20:00 +24°C° 0 mm 1 mps 740 mmHg 90%
    21:00 +24°C° 0 mm 1 mps 740 mmHg 90%
    22:00 +24°C° 0 mm 1 mps 740 mmHg 90%
    23:00 +23°C° 0 mm 1 mps 740 mmHg 91%
    Show more